Location: Tucson
(32.2217°N, 110.9265°W)
Time: 06:47:02
(UTC-07:00)

Transit 4A - All Passes

Search period start: 25 October 2021 00:00
Search period end: 04 November 2021 00:00
Orbit: 869 x 976 km, 66.8° (Epoch: 24 October)

Date Brightness Start Highest point End Pass type
(mag) Time Alt. Az. Time Alt. Az. Time Alt. Az.
25 Oct - 03:46:54 10° S 03:52:26 49° ESE 03:58:03 10° NE visible
25 Oct - 05:34:42 10° WSW 05:39:01 21° NW 05:43:24 10° N visible
25 Oct - 12:54:35 10° N 12:59:34 25° NE 13:04:38 10° ESE daylight
25 Oct - 14:40:11 10° NW 14:46:05 47° WSW 14:52:06 10° S daylight
26 Oct - 03:55:52 10° SSW 04:01:38 79° ESE 04:07:30 10° NNE visible
26 Oct - 05:45:40 10° W 05:48:38 14° NW 05:51:38 10° NNW visible
26 Oct - 13:03:22 10° N 13:09:04 37° ENE 13:14:51 10° SE daylight
26 Oct - 14:49:56 10° NW 14:55:14 30° WSW 15:00:37 10° SSW daylight
27 Oct - 02:22:36 10° SE 02:25:17 13° ESE 02:27:59 10° ENE visible
27 Oct - 04:05:11 10° SW 04:10:55 66° WNW 04:16:45 10° NNE visible
27 Oct - 13:12:23 10° NNW 13:18:28 56° ENE 13:24:39 10° SE daylight
27 Oct - 15:00:08 10° WNW 15:04:19 19° WSW 15:08:34 10° SSW daylight
28 Oct - 02:29:56 10° SSE 02:34:19 23° ESE 02:38:43 10° NE visible
28 Oct - 04:14:49 10° SW 04:20:17 42° WNW 04:25:50 10° N visible
28 Oct - 11:37:53 10° NNE 11:40:38 13° NE 11:43:22 10° ENE daylight
28 Oct - 13:21:34 10° NNW 13:27:47 85° ENE 13:34:08 10° SSE daylight
28 Oct - 15:11:39 10° W 15:13:21 11° WSW 15:15:04 10° WSW daylight
29 Oct - 02:38:11 10° S 02:43:24 36° ESE 02:48:41 10° NE visible
29 Oct - 04:24:51 10° WSW 04:29:44 28° NW 04:34:42 10° N visible
29 Oct - 11:45:56 10° N 11:50:17 20° NE 11:54:41 10° E daylight
29 Oct - 13:30:55 10° NNW 13:37:02 63° WSW 13:43:17 10° SSE daylight
30 Oct - 02:46:54 10° S 02:52:33 59° ESE 02:58:18 10° NE visible
30 Oct - 04:35:21 10° W 04:39:16 18° NW 04:43:17 10° N visible
30 Oct - 11:54:32 10° N 11:59:50 29° NE 12:05:12 10° ESE daylight
30 Oct - 13:40:29 10° NW 13:46:13 40° WSW 13:52:03 10° S daylight
31 Oct - 02:56:00 10° SSW 03:01:47 88° WNW 03:07:41 10° NNE visible
31 Oct - 04:46:45 10° WNW 04:48:57 12° NW 04:51:09 10° NNW visible
31 Oct - 12:03:25 10° N 12:09:17 43° ENE 12:15:15 10° SE daylight
31 Oct - 13:50:21 10° NW 13:55:21 26° WSW 14:00:25 10° SSW daylight
01 Nov - 01:21:54 10° SE 01:25:21 16° ESE 01:28:49 10° ENE night (unlit)
01 Nov - 03:05:25 10° SW 03:11:05 56° WNW 03:16:52 10° NNE visible
01 Nov - 12:12:29 10° NNW 12:18:39 66° ENE 12:24:57 10° SE daylight
01 Nov - 14:00:48 10° WNW 14:04:24 16° WSW 14:08:03 10° SW daylight
02 Nov - 01:29:39 10° SSE 01:34:24 27° ESE 01:39:11 10° NE night (unlit)
02 Nov - 03:15:11 10° SW 03:20:29 36° WNW 03:25:52 10° N visible
02 Nov - 10:37:29 10° NNE 10:40:57 15° NE 10:44:26 10° E daylight
02 Nov - 12:21:43 10° NNW 12:27:57 83° WSW 12:34:18 10° SSE daylight
03 Nov - 01:38:06 10° S 01:43:30 43° ESE 01:49:00 10° NE night (unlit)
03 Nov - 03:25:22 10° WSW 03:29:58 24° NW 03:34:39 10° N visible
03 Nov - 10:45:48 10° N 10:50:34 22° NE 10:55:23 10° ESE daylight
03 Nov - 12:31:09 10° NW 12:37:11 54° WSW 12:43:19 10° S daylight
